VA3PPY Weather Reports


Display with metric or nautical units.
time (UTC)temp
F
wind
direction
speed
MPH
gust
MPH
rain 1hr
in
rain 24hr
in
rain mn
in
humidity
%
barometer
mb
20260903224512 68 45 0.0 2.0 0.00 0.48 0.30 96 1012.0
20260903223012 68 45 0.0 2.0 0.00 0.48 0.30 96 1010.8
20260903221515 68 45 1.0 3.0 0.02 0.48 0.30 96 1010.6
20260903220012 68 321 1.0 5.0 0.07 0.48 0.30 96 1011.4
20260903214528 70 319 2.0 6.0 0.12 0.60 0.30 96 1012.0
20260903213019 70 300 0.0 1.0 0.14 0.60 0.30 96 1011.8
20260903211512 70 300 0.0 5.0 0.20 0.57 0.28 96 1012.1
20260903210013 71 338 1.0 5.0 0.21 0.53 0.23 96 1013.3
20260903204513 71 313 1.0 6.0 0.17 0.48 0.18 95 1013.7
20260903203012 71 291 1.0 5.0 0.15 0.46 0.16 95 1013.1
20260903201512 72 278 1.0 4.0 0.07 0.38 0.08 95 1013.9
20260903200013 72 255 0.0 3.0 0.01 0.32 0.02 95 1013.9
20260903194513 72 254 0.0 3.0 0.00 0.31 0.01 94 1011.9
20260903193014 72 254 0.0 2.0 0.00 0.31 0.01 93 1011.8
20260903191513 73 254 0.0 4.0 0.00 0.31 0.01 93 1011.4
20260903190014 73 254 0.0 3.0 0.00 0.31 0.01 93 1011.8
20260903184513 73 253 0.0 2.0 0.00 0.31 0.01 93 1011.9
20260903183013 73 253 0.0 4.0 0.00 0.31 0.01 93 1012.1
20260903181517 73 253 0.0 6.0 0.00 0.31 0.01 92 1012.2
20260903180035 74 253 1.0 6.0 0.00 0.31 0.01 91 1012.7
20260903174514 75 253 1.0 6.0 0.00 0.31 0.01 90 1013.0
20260903173013 76 253 0.0 2.0 0.00 0.31 0.01 88 1012.7
20260903171514 78 253 1.0 3.0 0.00 0.31 0.01 86 1013.0
20260903170020 77 253 0.0 6.0 0.00 0.31 0.01 88 1012.8
20260903164514 77 253 0.0 3.0 0.00 0.31 0.01 89 1012.9
20260903163013 77 253 0.0 3.0 0.00 0.31 0.01 90 1013.0
20260903161516 75 253 1.0 6.0 0.00 0.31 0.01 92 1013.1
20260903160014 74 149 2.0 6.0 0.00 0.31 0.01 93 1013.2
20260903154514 73 148 1.0 5.0 0.00 0.31 0.01 94 1012.9
20260903153014 73 146 0.0 3.0 0.00 0.31 0.01 94 1012.7
20260903151514 73 146 0.0 6.0 0.00 0.31 0.01 95 1012.5
20260903150015 73 146 1.0 4.0 0.00 0.31 0.01 95 1012.3
20260903144520 73 146 1.0 4.0 0.00 0.31 0.01 96 1012.4
20260903143015 73 146 0.0 4.0 0.00 0.31 0.01 96 1012.6
20260903141521 72 146 0.0 3.0 0.00 0.31 0.01 97 1012.5
20260903140014 72 146 0.0 2.0 0.00 0.31 0.01 97 1012.4
20260903134514 72 146 0.0 2.0 0.00 0.31 0.01 97 1012.6
20260903133015 71 146 0.0 3.0 0.00 0.31 0.01 97 1012.5
20260903131515 70 146 1.0 3.0 0.00 0.31 0.01 97 1012.6
20260903130017 70 146 0.0 3.0 0.00 0.31 0.01 97 1012.7
20260903124514 69 146 0.0 4.0 0.00 0.31 0.01 97 1012.9
20260903123028 68 146 0.0 0.0 0.00 0.31 0.01 97 1012.8
20260903121515 67 146 0.0 1.0 0.00 0.31 0.01 97 1012.6
20260903120015 67 146 0.0 0.0 0.00 0.31 0.01 97 1012.6
20260903114515 66 146 0.0 0.0 0.00 0.31 0.01 97 1012.5
20260903113022 66 146 0.0 0.0 0.00 0.31 0.01 97 1012.4
20260903111515 66 146 0.0 3.0 0.00 0.31 0.01 97 1012.3
20260903110015 66 146 0.0 0.0 0.00 0.31 0.01 97 1012.2
20260903104515 66 146 0.0 1.0 0.00 0.31 0.01 97 1012.1
20260903103015 65 146 0.0 0.0 0.00 0.31 0.01 97 1012.0
20260903101516 66 146 0.0 0.0 0.00 0.31 0.01 97 1011.9
20260903100023 65 146 0.0 0.0 0.00 0.31 0.01 97 1011.8
20260903094515 66 146 0.0 0.0 0.00 0.31 0.01 97 1011.7
20260903093037 66 146 0.0 0.0 0.00 0.31 0.01 97 1011.6
20260903091516 66 146 0.0 0.0 0.00 0.31 0.01 97 1011.5
20260903090021 66 146 0.0 0.0 0.00 0.31 0.01 97 1011.4
20260903084527 66 146 0.0 0.0 0.00 0.31 0.01 97 1011.3
20260903083016 66 146 0.0 0.0 0.00 0.31 0.01 97 1011.3
20260903081516 67 146 0.0 0.0 0.00 0.31 0.01 97 1011.1
20260903080016 67 146 0.0 0.0 0.00 0.31 0.01 97 1011.2
20260903074516 67 146 0.0 0.0 0.00 0.31 0.01 97 1011.2
20260903073016 67 146 0.0 0.0 0.00 0.31 0.01 97 1011.1
20260903071519 67 146 0.0 0.0 0.00 0.31 0.01 97 1010.9
20260903070020 67 146 0.0 0.0 0.00 0.31 0.01 97 1010.9
20260903064516 68 146 0.0 0.0 0.00 0.31 0.01 97 1011.0
20260903063016 68 146 0.0 0.0 0.01 0.31 0.01 97 1011.2
20260903061517 68 146 0.0 2.0 0.01 0.31 0.01 97 1011.3
20260903060016 68 146 0.0 2.0 0.01 0.31 0.01 96 1011.4
20260903054522 69 146 0.0 3.0 0.01 0.31 0.01 97 1011.6
20260903053016 69 146 0.0 2.0 0.00 0.30 0.00 97 1011.7
20260903051517 69 146 0.0 1.0 0.00 0.30 0.00 97 1011.6
20260903050016 69 146 0.0 1.0 0.00 0.30 0.00 97 1011.2
20260903044516 69 146 0.0 3.0 0.00 0.30 0.00 97 1011.0
20260903043017 69 142 1.0 4.0 0.00 0.30 0.00 96 1011.0
20260903041518 69 142 0.0 3.0 0.00 0.30 0.00 96 1010.6
20260903040017 69 142 0.0 0.0 0.00 0.30 0.00 96 1010.2
20260903034517 69 142 0.0 0.0 0.00 0.30 0.30 96 1010.3
20260903033029 69 142 0.0 0.0 0.00 0.30 0.30 96 1010.5
20260903031518 69 142 0.0 0.0 0.00 0.30 0.30 96 1010.0
20260903030018 69 142 0.0 0.0 0.00 0.30 0.30 96 1009.8
20260903024517 69 142 0.0 3.0 0.00 0.30 0.30 96 1010.5
20260903023019 70 142 0.0 3.0 0.00 0.30 0.30 96 1010.8
20260903021525 70 129 0.0 8.0 0.03 0.30 0.30 96 1010.8
20260903020017 70 151 1.0 3.0 0.03 0.30 0.30 96 1011.1
20260903014517 70 151 0.0 2.0 0.04 0.30 0.30 96 1010.9
20260903013017 70 151 0.0 7.0 0.15 0.28 0.28 96 1011.3
20260903011517 69 302 0.0 2.0 0.13 0.27 0.27 96 1010.7
20260903010017 70 302 0.0 1.0 0.13 0.27 0.27 95 1010.8
20260903004522 70 302 1.0 3.0 0.10 0.24 0.24 95 1010.8
20260903003018 70 302 0.0 0.0 0.00 0.14 0.14 95 1010.8
20260903001520 70 302 0.0 0.0 0.00 0.14 0.14 95 1010.5
20260903000018 70 302 0.0 0.0 0.01 0.14 0.14 95 1010.2
20260902234517 70 302 0.0 0.0 0.02 0.14 0.14 95 1010.2
20260902233018 70 302 0.0 0.0 0.02 0.14 0.14 94 1010.9
20260902231519 70 302 0.0 2.0 0.02 0.14 0.14 94 1011.0
20260902230018 70 302 0.0 4.0 0.01 0.13 0.13 94 1010.5